This is the latest recevied weather packets stored in our database for station/object K5OLV. If no packets are shown the sender has not sent any weather packets the latest 10 day(s).
| Time | Temp. | Humidity | Pressure | Rain* | Wind** | Luminosity | Snow |
|---|---|---|---|---|---|---|---|
| 1777489849 | 21.67° C | 88% | 1010.2 hPa | 0 mm | - | 714 W/m² | - |
| 1777489546 | 21.67° C | 88% | 1010.2 hPa | 0 mm | - | 765 W/m² | - |
| 1777489243 | 20.56° C | 91% | 1010.4 hPa | 0 mm | - | 778 W/m² | - |
| 1777488940 | 21.11° C | 89% | 1010.3 hPa | 0 mm | - | 121 W/m² | - |
| 1777488637 | 21.67° C | 89% | 1010.2 hPa | 0 mm | - | 150 W/m² | - |
| 1777488334 | 21.11° C | 90% | 1010.2 hPa | 0 mm | - | 190 W/m² | - |
| 1777488033 | 21.67° C | 89% | 1010.3 hPa | 0 mm | - | 343 W/m² | - |
| 1777487730 | 21.67° C | 88% | 1010.5 hPa | 0 mm | - | 253 W/m² | - |
| 1777487428 | 21.67° C | 88% | 1010.4 hPa | 0 mm | - | 782 W/m² | - |
| 1777487125 | 20.56° C | 91% | 1010.5 hPa | 0 mm | - | 259 W/m² | - |
| 1777486820 | 21.11° C | 92% | 1010.6 hPa | 0 mm | - | 193 W/m² | - |
| 1777486518 | 20.56° C | 92% | 1010.2 hPa | 0 mm | - | 369 W/m² | - |
| 1777486215 | 20.56° C | 92% | 1010.6 hPa | 0 mm | - | 219 W/m² | - |
| 1777485913 | 20.56° C | 93% | 1010.7 hPa | 0 mm | - | 153 W/m² | - |
| 1777485609 | 20° C | 93% | 1010.6 hPa | 0 mm | - | 77 W/m² | - |
| 1777485304 | 20° C | 93% | 1010.5 hPa | 0 mm | - | 69 W/m² | - |
| 1777485001 | 20° C | 93% | 1010.6 hPa | 0 mm | - | 146 W/m² | - |
| 1777484698 | 20° C | 94% | 1010.6 hPa | 0 mm | - | 140 W/m² | - |
| 1777484394 | 20° C | 94% | 1010.7 hPa | 0 mm | - | 172 W/m² | - |
| 1777484090 | 20° C | 94% | 1010.8 hPa | 0 mm | - | 130 W/m² | - |
| 1777483786 | 20° C | 95% | 1010.6 hPa | 0 mm | - | 81 W/m² | - |
| 1777483484 | 19.44° C | 95% | 1010.8 hPa | 0 mm | - | 78 W/m² | - |
| 1777483179 | 19.44° C | 95% | 1010.9 hPa | 0 mm | - | 88 W/m² | - |
| 1777482875 | 19.44° C | 94% | 1010.9 hPa | 0 mm | - | 60 W/m² | - |
| 1777482571 | 19.44° C | 94% | 1010.8 hPa | 0 mm | - | 54 W/m² | - |
* Rain latest hour (hover to see other rain measurements)
** Current wind speed in m/s (hover to see current wind gust speed)